Regional Weather Roundup
Issued by NWS

Home | Current Version | Previous Version | Graphics & Text | Print | Product List | Glossary On
Versions: 1 2 3 4 5 6 7 8 9 10 11 12 13 14 15 16 17 18 19 20 21 22 23 24 25 26 27 28 29 30 31 32 33 34 35 36 37 38 39 40 41 42 43 44 45 46 47 48 49 50
000
ASUS45 KPSR 010800
RWRAZ

ARIZONA REGIONAL HOURLY WEATHER ROUNDUP
NATIONAL WEATHER SERVICE PHOENIX AZ
100 AM MST WED APR 01 2015

NOTE: FAIR INDICATES FEW OR NO CLOUDS BELOW 12,000 FEET WITH NO
SIGNIFICANT WEATHER AND/OR OBSTRUCTIONS TO VISIBILITY.

AZZ001>003-036-010900-
NORTHWEST ARIZONA

CITY           SKY/WX    TMP DP  RH WIND       PRES   REMARKS
KINGMAN        CLEAR     63  23  21 S9        29.91R
$$

AZZ004>008-015-016-018-010900-
NORTH CENTRAL ARIZONA

CITY           SKY/WX    TMP DP  RH WIND       PRES   REMARKS
GRAND CANYON   CLEAR     36  25  64 SW3       30.06S
WILLIAMS       PTCLDY    52  28  40 S10G16    30.14R
PRESCOTT       MOCLDY    55  31  39 S6        30.02S
FLAGSTAFF      NOT AVBL
PAYSON         CLEAR     59  30  33 SW3       30.05F
$$

AZZ009>014-017-010900-
NORTHEAST ARIZONA

CITY           SKY/WX    TMP DP  RH WIND       PRES   REMARKS
WINSLOW        NOT AVBL
SAINT JOHNS    PTCLDY    54  27  35 SW6       30.04F
WINDOW ROCK    CLOUDY    54  26  34 SW14      30.07S
SHOW LOW       MOCLDY    50  27  40 S12       30.11F
$$

AZZ023-010900-
GREATER PHOENIX AREA

CITY           SKY/WX    TMP DP  RH WIND       PRES   REMARKS
PHOENIX        PTCLDY    80  39  23 NW7       29.83S
DEER VALLEY    CLEAR     74  40  29 SW6       29.85R
SCOTTSDALE     CLEAR     77  39  25 NW3       29.88R
$$

AZZ027-028-010900-
SOUTHWEST MARICOPA COUNTY AND PINAL COUNTY

CITY           SKY/WX    TMP DP  RH WIND       PRES   REMARKS
CASA GRANDE    CLEAR     72  36  26 CALM      29.87S
$$

AZZ503-504-507>509-010900-
SOUTHEAST ARIZONA

CITY           SKY/WX    TMP DP  RH WIND       PRES   REMARKS
TUCSON         CLEAR     71  45  39 S14       30.00F
NOGALES        CLEAR     58  45  62 CALM      30.07S
SAFFORD        CLEAR     65  32  29 N7        29.95S
$$

AZZ020-021-025-026-031-010900-
SOUTHWEST ARIZONA

CITY           SKY/WX    TMP DP  RH WIND       PRES   REMARKS
YUMA           NOT AVBL
$$

CAZ031-033-041-043-047-048-061-010900-
SOUTHERN CALIFORNIA

CITY           SKY/WX    TMP DP  RH WIND       PRES   REMARKS
DOWNTOWN L.A.  PTCLDY    61  56  83 CALM      29.98S
L.A. AIRPORT   PTCLDY    58  55  90 E3        29.99R
SAN DIEGO      MOCLDY    63  53  70 SE8       30.00S
BURBANK        CLEAR     60  54  80 E6        29.98R
ONTARIO        PTCLDY    58  53  84 SW3       29.98R
RIVERSIDE      CLEAR     58  53  84 CALM      29.98S
PALM SPRINGS   CLEAR     73  36  25 VRB3      29.83R
EL CENTRO NAS  CLEAR     74  22  14 W18       29.80F
IMPERIAL       CLEAR     73  23  15 NW6       29.80R
BLYTHE         CLEAR     72  39  30 SW6       29.80R
$$

NVZ020-UTZ003-010900-
SOUTHERN NEVADA-UTAH

CITY           SKY/WX    TMP DP  RH WIND       PRES   REMARKS
LAS VEGAS      NOT AVBL
SALT LAKE CITY MOCLDY    49  29  46 N21       29.95R
$$

NMZ009-TXZ055-010900-
NEW MEXICO-WEST TEXAS

CITY           SKY/WX    TMP DP  RH WIND       PRES   REMARKS
ALBUQUERQUE    PTCLDY    56  24  29 SE8       29.98F
EL PASO        PTCLDY    63  42  46 SW18      29.99F
$$


........................KEY........................
SKY/WX - SKY CONDITION/WEATHER
TMP    - TEMPERATURE IN FAHRENHEIT
DP     - DEW POINT IN FAHRENHEIT
RH     - RELATIVE HUMIDITY IN PERCENT
WIND   - DIRECTION AND SPEED IN MILES PER HOUR (MPH)
VRB    - VARIABLE WIND DIRECTION
PRES   - MEAN SEA LEVEL PRESSURE IN INCHES OF MERCURY
         F - FALLING PRESSURE   R - RISING PRESSURE
         S - STEADY PRESSURE
VSB    - VISIBILITY IN MILES
HX     - HEAT INDEX IN FAHRENHEIT
WCI    - WIND CHILL INDEX IN FAHRENHEIT
TC     - TEMPERATURE IN CELSIUS WHICH IS ALSO KNOWN AS
         TEMPERATURE IN CENTIGRADE
AFB    - AIR FORCE BASE
         LUKE AFB IS LUKE AIR FORCE BASE
         DAVIS-MONTHAN IS DAVIS-MONTHAN AIR FORCE BASE
NAS    - NAVAL AIR STATION
         EL CENTRO NAS IS EL CENTRO NAVAL AIR STATION
N/A    - NOT AVAILABLE




USA.gov is the U.S. government's official web portal to all federal, state and local government web resources and services.